When you browse on this site, cookies collect data to enhance your experience and personalize the content and advertising you see.
Visit our Privacy Policy to learn more. By continuing to use the site, you agree to this use of cookies and data.
  • In United Kingdom
  • List of Countries
  • For 7 days
  • Water Temperature
  • Satellite Maps
  • Weather Map
  • Weather Widgets
  • user-avatar
    Login

    Hourly Weather Sherpur

    Today, 23 January, Wednesday

    Time Temperature Precipitation Wind Pressure Humidity
    00:00 -6°C° 0 mm 1 mps 604 mmHg 50%
    01:00 -7°C° 0 mm 2 mps 604 mmHg 50%
    02:00 -7°C° 0 mm 2 mps 605 mmHg 49%
    03:00 -8°C° 0 mm 2 mps 605 mmHg 49%
    04:00 -8°C° 0 mm 2 mps 605 mmHg 49%
    05:00 -8°C° 0 mm 2 mps 604 mmHg 41%
    06:00 -8°C° 0 mm 2 mps 605 mmHg 41%
    07:00 -8°C° 0 mm 2 mps 605 mmHg 41%
    08:00 -8°C° 0 mm 2 mps 605 mmHg 40%
    09:00 -6°C° 0 mm 1 mps 606 mmHg 37%
    10:00 -3°C° 0 mm 1 mps 606 mmHg 35%
    11:00 -2°C° 0 mm 1 mps 606 mmHg 32%
    12:00 -1°C° 0 mm 1 mps 606 mmHg 34%
    13:00 -1°C° 0 mm 1 mps 606 mmHg 36%
    14:00 0°C° 0 mm 1 mps 606 mmHg 39%
    15:00 -1°C° 0 mm 1 mps 606 mmHg 42%
    16:00 -1°C° 0 mm 1 mps 606 mmHg 45%
    17:00 -2°C° 0 mm 1 mps 606 mmHg 48%
    18:00 -3°C° 0 mm 1 mps 606 mmHg 49%
    19:00 -6°C° 0 mm 2 mps 607 mmHg 50%
    20:00 -7°C° 0 mm 2 mps 607 mmHg 51%
    21:00 -7°C° 0 mm 2 mps 608 mmHg 50%
    22:00 -7°C° 0 mm 2 mps 608 mmHg 49%
    23:00 -7°C° 0 mm 2 mps 608 mmHg 48%

    Tomorrow, 24 January, Thursday

    Time Temperature Precipitation Wind Pressure Humidity
    00:00 -8°C° 0 mm 2 mps 608 mmHg 47%
    01:00 -8°C° 0 mm 2 mps 609 mmHg 46%
    02:00 -8°C° 0 mm 2 mps 609 mmHg 45%
    03:00 -8°C° 0 mm 2 mps 609 mmHg 44%
    04:00 -8°C° 0 mm 2 mps 609 mmHg 43%
    05:00 -8°C° 0 mm 2 mps 609 mmHg 42%
    06:00 -8°C° 0 mm 2 mps 609 mmHg 41%
    07:00 -8°C° 0 mm 2 mps 609 mmHg 41%
    08:00 -9°C° 0 mm 2 mps 610 mmHg 40%
    09:00 -7°C° 0 mm 2 mps 610 mmHg 36%
    10:00 -3°C° 0 mm 1 mps 610 mmHg 32%
    11:00 -2°C° 0 mm 1 mps 611 mmHg 28%
    12:00 -1°C° 0 mm 1 mps 610 mmHg 29%
    13:00 -1°C° 0 mm 1 mps 610 mmHg 30%
    14:00 0°C° 0 mm 1 mps 609 mmHg 31%
    15:00 -1°C° 0 mm 1 mps 609 mmHg 34%
    16:00 -1°C° 0 mm 1 mps 609 mmHg 38%
    17:00 -3°C° 0 mm 0 mps 609 mmHg 42%
    18:00 -3°C° 0 mm 1 mps 609 mmHg 43%
    19:00 -6°C° 0 mm 2 mps 609 mmHg 44%
    20:00 -6°C° 0 mm 2 mps 610 mmHg 45%
    21:00 -7°C° 0 mm 2 mps 610 mmHg 44%
    22:00 -7°C° 0 mm 2 mps 610 mmHg 44%
    23:00 -7°C° 0 mm 2 mps 610 mmHg 44%

    Day after tomorrow, 25 January, Friday

    Time Temperature Precipitation Wind Pressure Humidity
    00:00 -7°C° 0 mm 2 mps 610 mmHg 42%
    01:00 -8°C° 0 mm 2 mps 609 mmHg 41%
    02:00 -8°C° 0 mm 2 mps 609 mmHg 39%
    03:00 -8°C° 0 mm 2 mps 609 mmHg 38%
    04:00 -8°C° 0 mm 2 mps 609 mmHg 36%
    05:00 -8°C° 0 mm 2 mps 608 mmHg 35%
    06:00 -8°C° 0 mm 2 mps 609 mmHg 33%
    07:00 -8°C° 0 mm 2 mps 609 mmHg 32%
    08:00 -8°C° 0 mm 2 mps 609 mmHg 31%
    09:00 -7°C° 0 mm 2 mps 609 mmHg 29%
    10:00 -5°C° 0 mm 2 mps 609 mmHg 27%
    11:00 -1°C° 0 mm 1 mps 609 mmHg 26%
    12:00 -1°C° 0 mm 1 mps 609 mmHg 26%
    13:00 0°C° 0 mm 1 mps 608 mmHg 27%
    14:00 0°C° 0 mm 1 mps 608 mmHg 28%
    15:00 0°C° 0 mm 1 mps 608 mmHg 32%
    16:00 -1°C° 0 mm 1 mps 607 mmHg 35%
    17:00 -1°C° 0 mm 1 mps 607 mmHg 39%
    18:00 -2°C° 0 mm 1 mps 608 mmHg 40%
    19:00 -3°C° 0 mm 1 mps 608 mmHg 41%
    20:00 -6°C° 0 mm 2 mps 609 mmHg 42%
    21:00 -6°C° 0 mm 2 mps 609 mmHg 41%
    22:00 -7°C° 0 mm 2 mps 609 mmHg 41%
    23:00 -7°C° 0 mm 2 mps 609 mmHg 41%

    26 January, Saturday

    Time Temperature Precipitation Wind Pressure Humidity
    00:00 -7°C° 0 mm 2 mps 609 mmHg 40%
    01:00 -7°C° 0 mm 2 mps 609 mmHg 40%
    02:00 -8°C° 0 mm 2 mps 609 mmHg 39%
    03:00 -8°C° 0 mm 2 mps 609 mmHg 38%
    04:00 -8°C° 0 mm 2 mps 608 mmHg 37%
    05:00 -8°C° 0 mm 2 mps 608 mmHg 37%
    06:00 -8°C° 0 mm 2 mps 609 mmHg 36%
    07:00 -8°C° 0 mm 2 mps 609 mmHg 35%
    08:00 -8°C° 0 mm 2 mps 609 mmHg 34%
    09:00 -6°C° 0 mm 1 mps 609 mmHg 31%
    10:00 -3°C° 0 mm 1 mps 610 mmHg 28%
    11:00 -2°C° 0 mm 1 mps 610 mmHg 25%
    12:00 -1°C° 0 mm 1 mps 609 mmHg 25%
    13:00 0°C° 0 mm 1 mps 609 mmHg 25%
    14:00 0°C° 0 mm 1 mps 609 mmHg 25%
    15:00 0°C° 0 mm 1 mps 609 mmHg 29%
    16:00 -1°C° 0 mm 1 mps 609 mmHg 32%
    17:00 -1°C° 0 mm 1 mps 609 mmHg 36%
    18:00 -2°C° 0 mm 1 mps 609 mmHg 37%
    19:00 -3°C° 0 mm 1 mps 610 mmHg 38%
    20:00 -3°C° 0 mm 1 mps 610 mmHg 39%
    21:00 -4°C° 0 mm 1 mps 610 mmHg 39%
    22:00 -6°C° 0 mm 2 mps 610 mmHg 39%
    23:00 -6°C° 0 mm 2 mps 611 mmHg 39%

    27 January, Sunday

    Time Temperature Precipitation Wind Pressure Humidity
    00:00 -6°C° 0 mm 2 mps 611 mmHg 40%
    01:00 -7°C° 0 mm 2 mps 610 mmHg 40%
    02:00 -7°C° 0 mm 2 mps 610 mmHg 40%
    03:00 -7°C° 0 mm 2 mps 610 mmHg 41%
    04:00 -7°C° 0 mm 2 mps 610 mmHg 42%
    05:00 -7°C° 0 mm 2 mps 610 mmHg 43%
    06:00 -7°C° 0 mm 2 mps 610 mmHg 43%
    07:00 -7°C° 0 mm 2 mps 611 mmHg 44%
    08:00 -7°C° 0 mm 2 mps 611 mmHg 45%
    09:00 -5°C° 0 mm 2 mps 611 mmHg 43%
    10:00 -3°C° 0 mm 2 mps 611 mmHg 41%
    11:00 0°C° 0 mm 1 mps 611 mmHg 39%
    12:00 +1°C° 0 mm 1 mps 611 mmHg 39%
    13:00 +2°C° 0 mm 1 mps 610 mmHg 39%
    14:00 +3°C° 0 mm 1 mps 610 mmHg 40%
    15:00 +2°C° 0 mm 1 mps 609 mmHg 44%
    16:00 +2°C° 0 mm 1 mps 609 mmHg 48%
    17:00 +1°C° 0 mm 1 mps 609 mmHg 52%
    18:00 0°C° 0 mm 1 mps 609 mmHg 54%
    19:00 -3°C° 0 mm 2 mps 610 mmHg 56%
    20:00 -4°C° 0 mm 2 mps 610 mmHg 59%
    21:00 -4°C° 0 mm 2 mps 610 mmHg 58%
    22:00 -4°C° 0 mm 2 mps 610 mmHg 57%
    23:00 -5°C° 0 mm 3 mps 611 mmHg 56%

    28 January, Monday

    Time Temperature Precipitation Wind Pressure Humidity
    00:00 -5°C° 0 mm 3 mps 611 mmHg 54%
    01:00 -5°C° 0 mm 3 mps 610 mmHg 52%
    02:00 -5°C° 0 mm 3 mps 610 mmHg 51%
    03:00 -5°C° 0 mm 3 mps 610 mmHg 49%
    04:00 -5°C° 0 mm 3 mps 610 mmHg 47%
    05:00 -5°C° 0 mm 3 mps 610 mmHg 45%
    06:00 -5°C° 0 mm 3 mps 610 mmHg 44%
    07:00 -5°C° 0 mm 3 mps 610 mmHg 42%
    08:00 -5°C° 0 mm 3 mps 610 mmHg 41%
    09:00 -2°C° 0 mm 3 mps 611 mmHg 40%
    10:00 +1°C° 0 mm 2 mps 611 mmHg 38%
    11:00 +4°C° 0 mm 2 mps 611 mmHg 37%
    12:00 +4°C° 0 mm 2 mps 611 mmHg 37%
    13:00 +5°C° 0 mm 2 mps 610 mmHg 38%
    14:00 +6°C° 0 mm 2 mps 610 mmHg 38%
    15:00 +6°C° 0 mm 2 mps 609 mmHg 41%
    16:00 +5°C° 0 mm 2 mps 609 mmHg 45%
    17:00 +4°C° 0 mm 2 mps 609 mmHg 48%
    18:00 +3°C° 0 mm 2 mps 609 mmHg 49%
    19:00 +2°C° 0 mm 2 mps 609 mmHg 51%
    20:00 +1°C° 0 mm 2 mps 609 mmHg 53%
    21:00 +1°C° 0 mm 2 mps 609 mmHg 53%
    22:00 +1°C° 0 mm 2 mps 609 mmHg 53%
    23:00 +1°C° 0 mm 2 mps 609 mmHg 53%
    Show more